Wind_Speed
17 17 17 17 18 18 18 19 19 19 19 19 19 18 18 18 18 18 17 17 17 17 17 17 17 17 17 17 17 17 18 18 17 17 16 15 14 14 14 14 14 14 14 13 13 12 11 10 9 9 9 9 9 10 10 11 12 13 13 14 14 15 16 17 18 19 20 21 22 23 24 25 26 26 27 27 28 28 29 29 29 30 30 31 31 31
17 17 17 17 18 18 19 19 20 20 20 19 19 19 18 18 17 17 17 17 16 16 16 16 16 16 16 16 17 17 17 17 17 17 16 15 14 14 14 14 14 14 14 14 13 13 12 12 11 11 11 11 11 11 12 12 13 13 14 15 15 16 17 18 19 21 22 23 24 25 26 27 27 28 28 29 29 29 30 30 31 31 32 32 32 33
17 17 17 18 18 19 20 20 20 21 21 20 20 19 19 18 17 17 16 16 16 15 15 15 15 15 16 16 17 17 17 17 17 16 16 15 15 15 14 14 14 14 14 14 14 14 14 13 13 13 14 14 14 14 14 15 15 16 16 17 18 18 19 20 21 23 24 25 26 27 28 28 29 29 30 30 31 31 31 32 32 33 33 33 33 34
17 18 18 19 19 20 20 21 21 21 21 21 20 20 19 18 17 17 16 16 16 15 15 15 15 15 16 16 16 17 17 17 16 16 16 16 16 15 15 15 15 15 15 15 15 14 14 14 15 15 15 15 16 16 17 17 18 18 19 19 20 21 22 23 24 25 26 27 28 28 29 30 30 31 31 32 32 33 33 33 34 34 34 34 34 34
18 18 19 19 20 20 21 21 21 21 21 20 20 19 19 18 18 17 17 16 16 16 16 16 16 16 16 17 17 17 17 17 17 17 17 16 16 16 16 16 16 16 16 16 16 16 16 16 16 16 16 17 17 18 18 19 20 20 21 22 22 23 24 25 26 27 27 28 29 30 30 31 31 32 32 33 33 34 34 34 34 34 34 35 35 35
18 19 19 20 20 20 21 21 20 20 20 19 19 19 18 18 17 17 17 16 16 16 16 16 16 16 17 17 17 18 18 18 18 18 18 18 18 18 18 18 18 17 17 17 17 17 17 17 18 18 18 19 19 20 20 21 21 22 23 23 24 25 26 27 27 28 29 30 30 31 31 32 32 33 33 34 34 34 34 35 35 35 35 35 36 36
19 19 19 20 20 20 20 20 20 19 19 19 18 18 18 18 18 17 17 16 16 16 16 16 16 17 17 18 18 18 19 19 19 19 19 19 19 20 19 19 19 19 19 19 19 19 19 19 20 20 20 21 21 22 22 23 23 24 25 25 26 27 27 28 29 30 31 31 32 32 33 33 34 34 34 35 35 35 35 36 36 36 36 37 37 38
19 19 19 19 20 20 20 20 19 19 19 18 18 18 18 18 18 18 18 18 17 17 17 17 17 17 18 18 19 19 19 20 20 20 21 21 21 21 21 21 21 21 21 21 21 21 21 22 22 22 23 23 24 24 25 25 26 26 27 27 28 29 29 30 31 31 32 33 33 33 34 34 35 35 36 36 36 36 37 37 37 38 38 38 39 39
18 18 19 19 19 19 19 19 19 19 19 19 19 18 18 18 18 18 19 19 18 18 18 18 19 19 19 19 19 19 19 20 20 21 21 21 22 22 23 23 23 23 23 23 23 23 23 23 24 24 25 25 26 26 27 27 28 28 29 30 30 31 31 32 33 33 34 34 35 35 36 36 36 37 37 38 38 38 38 38 39 39 39 39 39 39
17 18 18 18 18 18 19 19 19 19 19 19 19 19 19 19 18 18 19 19 19 19 19 19 19 19 19 19 19 20 20 20 20 20 21 21 22 22 22 23 23 24 24 24 24 24 25 25 25 26 26 27 27 28 28 29 30 30 31 31 32 33 33 34 34 35 35 36 36 37 37 38 38 38 39 39 39 39 39 39 39 39 39 39 39 38
17 17 17 18 18 18 19 19 19 19 19 19 20 20 20 19 19 19 19 19 19 19 19 19 19 19 19 19 19 19 20 20 20 20 20 21 21 21 22 22 23 23 23 24 24 24 24 25 25 26 26 27 28 28 29 30 30 31 32 32 33 33 34 34 35 35 36 36 37 37 38 38 39 39 39 39 39 39 39 39 38 38 37 37 36 36
17 17 17 17 18 18 19 19 19 19 19 19 20 20 20 20 20 19 19 18 18 18 18 18 19 19 19 19 19 19 19 19 20 20 20 20 20 21 21 21 22 22 22 22 23 23 23 23 23 24 25 26 27 28 28 29 30 30 31 31 32 32 33 34 34 35 35 36 36 37 37 37 38 38 38 38 37 37 37 36 36 35 34 34 33 32
17 17 18 18 18 18 19 19 19 19 19 19 19 19 19 19 19 19 19 19 18 18 18 18 18 19 19 19 19 19 19 19 19 19 20 20 20 20 20 21 21 21 22 22 22 22 22 21 21 22 23 24 25 26 27 28 28 29 29 30 30 31 31 32 32 33 33 34 34 35 35 35 35 35 35 35 34 34 34 33 32 31 30 29 28 27
18 18 18 18 19 19 19 19 19 19 19 19 19 19 19 19 19 19 19 19 19 19 19 18 18 19 19 19 19 18 18 18 19 19 19 20 20 20 20 20 20 21 21 22 22 22 22 21 21 21 22 23 24 25 26 27 27 27 28 28 28 29 29 30 30 31 31 31 32 32 32 32 32 32 32 31 31 30 30 29 28 27 26 25 24 24
18 18 18 19 19 19 19 19 19 19 19 19 19 20 20 20 20 20 20 19 19 19 19 19 19 20 20 20 20 19 19 19 19 19 20 20 21 21 21 21 21 21 22 22 22 22 22 22 21 21 22 23 24 25 26 26 27 27 27 27 28 28 28 28 29 29 29 29 29 29 29 29 29 29 28 28 27 27 26 25 24 23 23 22 22 21
19 19 19 19 19 19 19 19 19 19 19 20 20 20 20 20 20 20 20 20 20 20 20 20 20 21 21 22 21 21 20 19 19 19 20 21 21 22 22 21 22 22 23 23 23 23 23 23 22 22 23 24 25 25 26 27 27 27 27 27 28 28 28 28 28 28 27 27 27 27 27 27 26 26 25 25 24 24 23 22 22 21 21 20 20 20
19 19 19 19 19 19 19 19 19 19 20 20 20 20 20 20 21 21 21 21 21 21 21 21 21 21 22 23 23 23 22 21 20 20 21 21 22 23 24 23 23 23 24 24 24 24 23 23 23 23 24 24 25 26 26 27 27 27 27 27 27 27 27 27 27 27 26 26 26 25 25 24 24 23 23 22 22 21 21 21 20 20 20 20 20 20
19 19 19 19 19 19 19 19 20 20 20 20 20 21 21 21 21 21 21 22 22 22 22 22 22 22 22 22 23 24 24 23 22 22 22 22 23 25 26 25 25 24 25 25 25 25 24 24 24 24 24 25 25 26 26 26 26 26 26 27 27 27 26 26 26 26 25 25 24 24 23 22 22 21 21 21 20 20 20 20 20 20 20 20 20 20
19 19 19 19 19 19 19 19 20 20 20 20 21 21 21 21 22 22 22 22 23 23 23 23 23 23 23 23 24 25 25 24 23 23 22 23 24 26 27 27 26 26 26 27 27 26 25 25 25 25 25 25 25 25 25 26 26 26 26 26 26 25 25 25 25 24 24 23 22 22 21 21 20 20 20 20 20 19 19 20 20 20 20 20 20 20
19 19 19 19 19 19 19 19 20 20 20 20 21 21 21 22 22 22 23 23 23 24 24 24 24 24 24 25 25 26 26 25 24 24 24 24 25 27 28 28 27 27 27 28 28 27 26 26 25 25 25 25 25 25 25 25 25 25 25 25 24 24 24 24 23 23 22 22 21 20 20 19 19 19 19 19 19 20 20 20 20 20 20 20 20 20
19 19 19 19 19 19 19 19 20 20 20 21 21 21 22 22 23 23 24 24 24 24 25 24 25 25 25 26 26 27 27 26 25 25 25 25 26 27 28 28 27 27 28 28 28 28 27 26 26 25 25 24 24 24 24 24 24 24 24 23 23 23 22 22 22 21 21 20 20 19 19 19 19 19 19 19 20 20 20 20 20 21 21 21 21 21
19 19 19 19 19 19 19 19 20 20 21 21 21 22 22 23 23 23 24 25 25 25 25 25 25 26 26 27 27 28 28 28 27 26 26 25 26 27 29 28 28 28 28 28 29 28 27 27 26 25 24 24 23 23 23 23 23 23 22 22 22 21 21 21 20 20 20 19 19 19 19 19 19 19 20 20 20 21 21 21 21 21 21 21 21 21
19 19 19 19 19 19 19 20 20 20 21 21 22 22 22 23 23 24 24 25 25 25 25 25 26 27 27 28 28 29 30 30 29 28 27 26 26 28 29 29 28 28 28 28 28 28 28 27 26 25 24 23 23 23 23 23 22 22 21 21 21 20 20 20 19 19 19 19 19 19 19 19 20 20 20 21 21 21 22 22 22 21 21 21 21 21
19 19 19 20 20 20 20 20 20 21 21 21 22 22 23 23 24 24 25 25 25 25 25 26 26 27 28 29 29 30 31 31 31 30 28 27 27 28 29 29 28 28 28 28 28 28 27 26 25 24 23 22 22 22 22 22 22 21 21 20 20 19 19 19 19 19 19 19 19 19 20 20 20 21 21 21 22 22 22 22 22 22 22 21 21 21
19 20 20 20 20 20 20 21 21 21 21 22 22 22 23 23 24 25 25 25 25 25 25 26 26 27 28 28 29 30 31 32 32 31 29 28 28 28 29 29 28 27 28 28 28 28 27 26 25 24 22 21 21 21 21 21 21 20 20 19 19 19 19 19 19 19 19 19 20 20 20 21 21 22 22 22 22 22 22 22 22 22 22 22 21 21
19 20 20 20 20 21 21 21 22 22 22 22 22 22 23 23 24 24 25 25 25 25 25 25 26 26 27 28 28 29 30 31 32 31 30 28 28 28 29 28 28 27 27 28 28 27 26 25 24 23 21 20 20 20 20 20 20 20 19 19 19 19 19 19 19 20 20 20 21 21 21 22 22 22 22 23 23 23 23 23 22 22 22 22 22 22
19 20 20 20 21 21 21 22 22 23 23 23 23 23 23 23 24 24 25 25 26 26 26 26 26 26 27 27 28 29 30 31 31 31 30 28 28 27 28 28 27 26 26 27 27 27 26 25 24 22 21 20 19 19 19 19 19 19 19 19 19 19 20 20 20 20 21 21 22 22 22 22 23 23 23 23 23 23 23 23 23 23 22 22 22 22
20 20 20 20 21 21 22 22 23 23 24 24 24 24 24 24 24 24 25 26 26 26 26 26 26 26 26 27 27 29 30 31 31 30 30 28 27 27 27 27 27 26 25 25 26 26 26 25 24 22 20 19 19 19 19 19 19 19 19 20 20 20 20 21 21 21 22 22 22 22 23 23 23 23 23 23 23 23 23 23 23 23 23 23 22 22
20 20 21 21 21 22 22 23 23 24 24 25 25 25 26 26 25 25 25 26 26 26 26 26 27 27 27 27 28 29 30 31 31 30 30 28 28 27 27 27 26 26 25 24 25 25 26 25 24 22 20 19 19 18 18 19 19 19 20 20 20 21 21 21 22 22 22 23 23 23 23 24 24 24 24 24 23 23 23 23 23 23 23 23 22 22
21 21 21 22 22 22 22 23 23 24 24 25 25 26 26 26 26 26 26 26 26 26 26 27 27 27 27 27 28 28 30 31 31 31 30 28 28 28 27 27 26 26 25 24 23 24 25 26 25 23 21 20 19 19 19 19 19 19 20 20 21 21 22 22 22 23 23 23 24 24 24 24 24 24 24 24 24 24 23 23 23 23 23 23 23 22
22 22 22 22 22 23 23 23 24 24 25 25 26 26 27 27 27 27 27 27 27 27 27 27 27 27 28 28 27 28 29 30 31 31 30 28 28 28 27 27 26 26 26 24 22 21 22 24 25 24 23 21 20 19 19 19 19 19 20 20 21 22 22 23 23 23 24 24 24 24 25 25 25 25 25 24 24 24 24 24 24 24 24 24 23 23
23 23 23 23 23 23 23 24 24 24 25 25 26 26 27 27 27 27 27 27 27 27 27 27 28 28 28 28 28 28 29 30 30 30 29 28 28 28 28 27 26 26 26 25 23 21 20 21 22 24 24 22 21 21 20 20 20 20 20 21 21 22 23 23 23 24 24 24 25 25 25 25 25 25 25 25 24 24 24 24 24 24 24 24 24 24
24 24 24 24 24 24 24 24 24 25 25 25 26 26 27 27 27 27 28 28 28 28 27 28 28 28 28 28 29 29 30 30 30 30 29 28 28 28 28 27 26 26 26 25 24 23 21 19 20 21 22 23 23 22 22 21 21 21 21 21 22 22 23 23 24 24 24 24 25 25 25 25 25 25 25 25 25 25 25 25 25 25 25 24 24 24
24 24 24 24 24 24 25 25 25 25 25 26 26 27 27 27 27 28 28 28 28 28 28 28 28 28 28 28 29 29 30 31 31 30 30 29 28 27 27 27 27 26 26 25 25 24 22 20 20 19 20 21 22 23 23 23 23 22 22 22 22 23 23 24 24 24 24 25 25 25 25 26 26 25 25 25 25 25 25 25 25 25 25 25 25 25
25 25 25 25 25 25 25 25 26 26 26 26 26 27 27 27 27 28 28 28 28 28 28 28 28 28 28 28 28 29 30 31 31 31 30 29 28 27 27 27 27 26 26 25 25 24 23 22 20 20 19 20 21 23 24 24 24 24 23 23 23 24 24 24 24 24 25 25 25 26 26 26 26 26 25 25 25 25 25 25 25 25 25 26 26 26
25 25 25 25 25 25 26 26 26 26 26 27 27 27 27 27 28 28 28 28 28 28 28 28 28 28 29 28 28 29 29 30 31 31 30 30 29 28 27 27 27 26 26 25 25 24 23 22 21 20 20 20 20 21 23 24 25 25 25 25 25 25 25 25 25 25 25 25 26 26 26 26 26 26 26 26 26 25 25 25 26 26 26 27 27 28
25 26 26 26 26 26 26 26 27 27 27 27 27 27 27 28 28 28 28 28 28 28 28 28 28 28 29 29 29 29 29 30 31 31 31 30 30 29 28 27 27 27 26 26 25 25 24 23 22 21 21 20 20 21 22 23 24 25 26 26 26 26 26 26 25 25 25 26 26 26 27 27 27 27 26 26 26 26 26 26 27 27 28 28 29 29
26 26 26 26 26 26 26 27 27 27 27 27 27 27 28 28 28 28 28 28 28 28 28 28 28 28 29 29 29 29 30 30 30 30 31 30 30 29 28 28 28 27 27 26 26 25 24 23 22 21 21 21 21 21 22 22 23 24 25 26 27 27 27 27 27 26 26 26 27 27 27 27 27 27 27 27 27 27 27 27 28 28 29 29 30 30
26 26 26 27 27 27 27 27 27 27 27 28 28 28 28 28 28 28 28 28 28 28 28 28 28 28 28 29 29 29 29 30 30 30 30 30 30 29 29 28 28 27 27 27 27 26 25 24 23 22 21 21 21 21 22 22 23 24 25 25 26 27 28 28 28 28 28 27 28 28 28 28 28 28 28 28 28 28 28 28 29 30 30 31 31 32
26 26 27 27 27 27 27 27 27 27 28 28 28 28 28 28 28 28 28 28 28 28 28 28 28 28 29 29 29 29 29 30 30 30 30 30 30 29 29 28 28 27 27 27 27 26 26 25 24 23 22 22 21 21 21 22 23 24 24 25 26 26 27 28 28 28 29 29 29 29 29 29 29 29 29 29 29 29 29 30 30 31 31 32 32 33
26 27 27 27 27 27 27 27 27 28 28 28 28 28 28 28 28 28 28 28 28 28 28 28 28 29 29 29 30 30 30 30 30 30 30 30 30 29 29 28 28 28 27 27 27 27 26 26 25 24 23 23 22 21 21 22 23 24 24 25 25 26 26 27 28 28 29 29 29 30 30 30 30 30 30 29 30 30 30 31 31 32 32 33 33 33
26 27 27 27 27 27 27 27 27 28 28 28 28 28 28 28 28 28 28 28 28 28 29 29 29 29 29 30 30 31 31 30 30 30 30 30 30 30 29 29 28 28 27 27 27 27 26 26 25 25 24 24 23 22 22 22 23 24 25 25 26 26 26 26 27 28 29 29 30 30 31 31 31 30 30 30 30 31 31 31 32 32 33 33 33 34
27 27 27 27 27 27 27 27 27 27 28 28 28 28 28 28 28 28 28 28 28 29 29 29 29 29 29 30 30 31 31 31 31 31 31 31 30 30 29 29 28 28 27 27 27 26 26 26 25 25 25 24 23 23 22 23 23 24 25 26 26 26 26 26 27 28 29 30 30 31 31 31 31 31 31 31 31 32 32 32 32 33 33 33 34 34
27 27 27 27 27 27 27 27 27 27 27 28 28 28 28 28 28 28 28 28 28 28 29 29 29 29 29 29 30 31 31 32 32 32 32 31 31 30 30 29 29 28 28 27 26 26 26 25 25 25 25 24 24 23 23 23 24 25 26 26 26 26 26 26 27 28 29 30 31 31 32 32 32 32 32 32 32 32 32 32 32 33 33 34 34 34
27 27 27 27 27 27 27 27 27 27 27 28 28 28 28 28 28 28 28 28 28 28 28 29 29 29 29 29 30 30 31 31 32 32 32 32 31 31 30 29 29 28 28 27 27 26 25 25 25 25 25 24 24 23 23 24 25 25 26 26 27 27 27 27 27 28 29 30 31 32 32 33 33 32 32 32 32 32 32 32 32 33 33 33 34 34
27 27 27 27 27 27 27 27 27 27 28 28 28 28 28 28 28 28 28 28 28 28 28 29 28 28 29 29 29 30 30 30 31 32 32 32 32 31 30 30 29 28 28 27 27 26 26 25 24 24 24 24 23 23 24 24 25 25 26 26 27 27 27 27 28 29 29 30 31 32 33 33 33 33 33 33 32 32 32 32 32 32 32 33 33 33
27 27 27 27 27 27 27 28 28 28 28 28 28 28 28 28 28 28 28 28 28 28 29 29 29 29 29 29 29 29 29 30 30 31 32 32 32 31 31 30 29 28 28 27 27 26 26 25 24 24 23 23 23 23 24 24 25 25 25 26 26 26 27 27 28 29 30 30 31 32 33 33 33 33 33 33 33 32 32 32 32 32 32 32 32 32
27 27 27 27 27 27 28 28 28 28 28 28 28 29 29 29 29 29 29 29 29 29 29 29 29 29 29 29 30 29 29 29 29 30 30 31 31 31 31 30 30 29 28 28 27 26 26 25 24 24 24 23 23 23 23 24 24 25 25 25 26 26 26 27 28 29 29 30 31 32 32 33 33 33 33 33 33 32 31 31 31 31 31 31 31 31
27 27 27 27 27 27 27 28 28 28 28 28 29 29 29 29 29 29 29 29 29 29 29 29 29 29 29 29 30 30 29 29 29 30 30 30 31 31 31 31 30 30 29 28 28 27 26 25 24 24 24 24 24 23 23 24 24 24 25 25 25 25 26 26 27 28 29 29 30 31 32 32 32 33 33 33 32 32 31 30 30 30 30 30 31 31
28 27 27 27 27 27 27 28 28 28 28 29 29 29 29 29 30 29 29 29 29 29 29 29 29 29 29 29 30 30 29 29 29 29 30 30 30 30 30 31 31 30 30 29 29 28 26 25 25 24 25 25 25 24 24 24 24 24 24 25 25 25 25 26 26 27 28 29 29 30 31 31 32 32 32 32 32 31 30 29 28 28 29 29 29 30
28 28 27 27 27 27 27 28 28 28 28 29 29 29 29 30 30 30 30 30 29 29 30 30 30 29 29 30 30 29 29 29 29 29 30 30 30 30 30 30 30 30 30 30 29 28 27 26 25 24 25 25 26 25 25 25 24 24 24 24 25 25 25 25 26 27 27 28 29 29 30 30 31 31 32 32 31 31 30 29 28 27 28 28 29 29
Wind_Direction
312 314 315 316 317 318 318 319 320 321 323 324 324 325 326 326 326 324 322 319 316 312 309 306 303 301 300 299 300 301 304 306 307 308 309 312 315 319 323 325 326 326 324 322 319 316 311 306 299 293 287 282 278 276 275 273 273 272 271 271 270 270 269 269 268 268 268 268 268 268 267 267 267 267 267 267 267 267 268 268 268 269 269 269 268 268
313 314 315 316 316 317 317 318 318 319 320 321 321 322 323 324 324 323 322 319 317 315 312 310 307 304 302 301 302 303 304 305 306 307 309 313 317 320 322 322 322 321 320 318 316 314 311 307 303 298 293 289 284 280 278 275 274 273 272 271 271 270 270 269 269 269 269 269 269 269 269 269 269 269 269 269 269 269 269 269 270 270 270 270 269 269
313 314 315 316 316 315 315 316 317 317 317 318 317 317 318 318 318 317 316 315 314 313 311 310 307 305 302 302 302 302 303 303 305 307 310 314 317 319 319 318 317 315 314 313 311 310 308 306 303 300 297 294 291 287 284 282 279 277 275 273 272 271 270 270 270 270 270 270 270 270 270 270 270 271 271 271 271 270 270 270 270 270 270 270 270 270
313 314 315 315 315 315 315 315 316 316 316 315 315 314 313 313 312 310 310 309 308 307 307 306 304 302 301 300 300 300 301 301 303 306 309 312 314 314 314 312 311 309 308 306 305 304 303 301 299 297 295 293 291 288 286 283 281 279 276 275 273 272 271 271 270 270 270 270 270 271 271 271 271 271 271 271 271 271 270 270 270 270 270 270 271 271
313 314 315 315 314 314 315 315 315 315 315 314 313 312 311 310 309 307 306 305 304 303 302 302 301 300 299 298 299 299 300 301 302 304 306 307 308 308 307 306 305 304 302 301 300 299 298 296 295 293 292 290 288 286 284 282 280 278 276 275 274 273 272 271 271 271 270 270 271 271 271 271 272 272 272 271 271 271 271 271 271 271 271 271 271 271
313 314 314 314 314 313 313 314 314 314 314 314 313 313 312 311 310 309 308 306 305 303 302 301 301 300 300 300 300 301 301 302 303 303 304 304 303 302 301 301 300 298 298 297 296 295 294 292 291 290 289 287 285 284 282 280 278 277 275 274 273 272 271 271 270 270 270 270 271 271 271 272 272 272 272 271 271 271 271 271 271 271 271 271 271 272
313 313 313 313 313 313 313 313 313 313 314 314 315 315 315 315 314 314 313 312 310 309 307 305 304 303 303 303 303 303 303 304 304 303 303 302 301 300 299 298 297 295 294 293 292 292 290 289 288 287 285 284 283 281 280 278 277 275 274 273 272 271 271 270 270 270 270 270 271 271 271 272 272 272 272 271 271 271 271 271 271 271 271 271 271 271
312 312 311 311 312 312 312 312 313 314 315 315 316 317 317 317 317 317 317 316 316 314 312 311 309 307 306 305 304 304 303 303 302 302 301 301 300 299 298 297 295 294 293 292 291 289 288 286 285 284 283 282 281 280 278 277 276 275 274 273 272 271 271 270 270 270 270 270 271 271 271 271 271 271 271 271 271 271 271 271 271 271 271 271 271 271
310 310 310 310 311 311 312 313 314 315 316 317 317 318 318 318 318 318 318 318 318 316 315 313 311 310 308 306 304 303 302 301 300 299 299 298 298 297 296 295 294 293 292 290 289 287 286 284 283 282 281 280 279 278 276 275 274 273 272 272 271 270 270 270 270 270 270 270 270 270 271 271 271 271 271 271 271 271 271 271 271 271 271 271 271 270
308 309 309 310 311 312 313 314 315 315 317 317 318 318 318 318 318 318 318 318 317 316 315 313 311 310 309 307 305 303 302 301 300 298 297 296 295 295 294 294 293 292 291 290 288 287 285 283 282 281 279 278 277 275 274 273 272 271 270 270 269 269 269 269 269 269 269 269 270 270 270 270 270 270 270 271 271 271 271 271 271 271 271 271 270 270
307 308 309 310 311 312 313 314 315 316 317 318 318 318 318 318 318 317 317 317 316 314 313 312 310 309 308 307 306 305 304 303 302 301 299 297 295 294 294 293 292 292 291 289 288 286 285 283 281 280 278 277 276 274 273 272 271 270 270 269 269 269 269 269 269 269 269 269 269 269 269 270 270 270 270 270 270 270 270 270 270 270 270 270 269 268
307 308 309 310 311 312 313 315 315 316 317 317 318 318 318 317 316 316 315 315 315 314 312 311 310 309 308 307 307 307 307 306 306 304 302 300 298 297 295 294 293 292 291 290 289 287 285 284 282 281 279 277 276 275 274 273 272 272 271 271 271 271 271 271 270 270 270 270 270 270 269 269 269 270 270 270 270 269 269 269 269 269 268 267 266 265
308 309 310 311 312 313 314 315 315 316 316 316 316 316 316 315 315 315 315 316 315 314 313 312 311 310 309 308 308 308 308 308 308 307 306 304 302 300 298 297 296 295 293 292 291 290 289 287 285 283 281 279 278 277 276 275 275 275 274 274 274 273 273 273 272 272 271 271 270 270 270 270 269 269 269 269 268 268 268 267 267 266 265 264 262 261
308 309 311 311 312 313 314 314 315 315 315 315 315 315 316 316 316 316 317 317 316 315 314 314 313 311 310 309 309 309 309 309 309 308 307 306 304 302 301 300 299 298 297 296 296 295 294 293 290 287 284 282 280 280 279 279 279 279 278 278 277 277 276 275 274 274 273 272 272 271 270 270 269 269 268 268 267 266 265 264 263 262 260 258 257 255
309 310 311 312 313 313 314 314 315 315 315 315 316 316 317 317 317 318 318 317 317 316 316 315 315 314 312 311 311 311 311 310 310 310 308 307 305 303 302 302 301 300 299 299 299 299 298 297 295 292 289 286 285 284 283 283 283 283 283 283 282 281 280 279 278 277 275 274 273 272 271 270 269 268 267 266 265 263 262 260 258 256 254 252 251 250
309 310 311 312 313 314 314 315 315 316 316 317 317 317 318 319 319 318 318 318 318 317 317 316 316 316 314 314 314 313 313 312 312 311 310 308 306 305 303 303 302 302 301 301 300 300 300 299 297 294 292 290 288 287 287 287 287 287 286 286 285 284 283 282 280 279 277 276 274 272 271 270 268 267 265 263 261 259 257 255 253 251 250 248 247 247
310 311 312 313 313 314 315 316 317 317 317 318 318 318 319 319 319 318 318 318 318 318 317 317 317 317 316 315 315 314 314 314 314 313 312 310 308 306 305 305 304 303 303 302 302 302 301 300 298 296 293 291 290 289 289 288 288 287 287 286 285 284 283 282 281 279 277 275 274 272 270 268 266 264 262 260 257 255 253 251 250 248 247 247 247 248
310 311 312 313 314 315 316 317 317 317 318 318 319 319 319 319 318 318 318 318 317 317 317 317 317 317 317 316 314 313 314 314 315 314 314 312 309 307 307 307 307 306 305 304 304 304 303 301 299 297 295 293 292 291 290 289 288 287 286 285 284 283 282 281 280 278 276 274 272 270 268 266 263 261 258 256 253 252 250 249 249 248 249 249 250 251
310 311 312 313 314 315 316 317 317 317 318 318 318 318 318 318 317 317 317 317 317 317 317 317 317 316 316 315 314 313 313 314 314 315 315 313 310 308 308 308 308 308 307 306 305 304 303 302 300 298 296 295 294 293 292 290 289 287 286 285 283 282 281 280 278 276 274 271 269 267 264 262 260 257 255 253 252 251 250 250 250 251 252 253 254 255
310 311 312 313 314 315 316 316 317 317 317 317 317 317 318 317 317 317 316 316 317 317 317 317 316 316 315 315 314 313 313 313 314 314 314 313 310 308 308 308 308 308 307 306 305 305 303 302 300 299 298 297 295 294 292 290 288 287 285 283 282 281 279 277 275 273 271 268 266 264 261 259 257 255 253 252 252 252 252 253 253 254 256 256 257 258
310 311 312 313 314 316 316 316 316 316 316 316 317 317 317 317 316 316 316 316 316 316 317 316 316 315 314 314 313 312 312 312 313 314 314 313 311 309 308 308 308 308 307 306 305 304 303 302 301 300 299 297 296 294 291 289 287 285 284 282 280 279 277 275 272 270 267 265 262 260 258 256 255 254 253 253 253 254 255 256 256 257 258 259 259 259
311 312 312 313 314 315 316 316 315 315 315 316 316 316 316 316 316 316 315 316 316 316 316 316 315 314 314 313 313 312 312 312 312 313 313 313 311 309 308 308 308 308 307 305 304 304 303 302 301 300 299 298 295 293 290 288 286 284 283 280 279 276 274 272 269 266 264 261 259 257 256 255 254 254 254 255 256 256 257 258 259 259 260 260 260 259
311 312 312 313 314 314 315 315 315 315 315 315 316 316 316 316 315 315 315 315 315 315 315 315 314 314 313 313 312 312 312 311 312 312 313 313 311 309 308 308 308 308 307 305 304 303 303 302 302 301 299 297 295 292 289 287 285 283 281 279 276 274 271 268 265 263 260 258 257 255 255 254 254 255 256 256 257 258 259 259 260 260 260 259 259 258
311 312 312 313 313 314 314 314 314 314 314 314 315 315 315 315 315 314 314 314 314 314 314 314 314 314 313 313 313 312 312 311 312 313 313 313 312 310 309 309 309 308 306 305 304 303 303 302 301 300 299 296 293 290 288 286 284 282 280 277 274 271 268 265 262 260 258 256 255 254 254 255 255 256 257 258 258 259 259 260 260 259 259 258 257 256
310 311 311 312 312 313 313 313 313 313 313 313 313 313 313 313 313 313 313 313 313 313 313 313 313 313 312 313 313 312 311 311 311 312 313 313 312 311 310 309 309 308 306 305 304 303 302 302 301 300 298 295 292 289 286 284 282 280 278 275 271 268 265 262 260 258 256 255 255 255 255 256 256 257 257 258 259 259 260 259 259 258 258 257 256 255
309 310 310 311 311 312 312 312 311 312 311 311 312 312 312 312 312 312 312 312 312 312 312 312 312 311 311 311 311 310 309 310 310 311 312 312 312 311 310 309 309 308 306 305 304 303 302 301 300 299 297 293 290 287 284 282 280 278 275 272 269 266 263 261 259 257 256 256 256 256 256 256 257 258 258 258 259 259 259 258 258 257 256 256 255 254
308 308 309 310 310 310 311 310 311 310 311 311 311 311 311 311 311 311 311 310 310 310 311 311 310 310 310 310 310 309 308 309 309 310 311 311 312 311 309 308 308 307 306 304 303 302 301 300 299 297 295 291 287 284 281 279 277 275 272 270 267 264 262 260 259 258 257 257 257 257 257 258 258 258 258 258 258 258 258 257 257 256 256 255 255 255
307 307 308 308 309 309 309 309 310 310 310 310 310 310 310 310 310 310 310 309 309 310 310 310 310 310 310 310 310 309 308 308 309 309 310 311 312 311 309 308 308 307 306 304 303 302 301 299 298 296 293 289 285 281 278 276 273 271 269 268 266 264 262 261 260 259 259 258 258 258 259 259 259 258 258 258 258 257 257 257 256 256 256 256 256 256
306 307 307 308 308 308 308 309 309 309 309 310 310 310 310 311 311 310 310 309 310 310 310 310 310 310 310 310 310 309 309 308 309 309 310 311 312 311 309 309 308 307 305 304 303 302 300 299 297 295 291 287 283 279 276 273 271 269 267 266 264 263 262 261 261 260 260 260 259 259 259 259 259 258 258 258 257 257 256 256 256 256 256 256 256 257
306 307 307 307 307 308 308 308 308 308 309 309 309 310 310 310 310 310 310 310 310 310 310 310 310 310 310 311 311 310 309 309 309 309 310 312 311 311 310 309 308 306 305 304 302 301 299 298 297 295 291 287 283 279 275 272 269 267 265 264 263 263 262 262 261 261 261 260 260 260 260 259 259 259 258 257 257 257 256 256 256 256 256 256 257 258
306 306 307 307 307 307 307 307 307 308 308 308 309 309 309 310 310 310 310 310 310 310 310 310 311 311 311 311 311 310 309 309 309 310 311 312 311 310 310 309 308 306 305 303 301 299 297 296 296 294 292 288 284 280 276 272 269 267 265 264 263 262 262 262 261 261 261 261 261 260 260 260 259 259 258 258 257 257 256 256 256 256 256 257 257 258
305 306 306 306 306 306 306 306 306 306 307 307 307 308 308 309 309 309 309 310 310 310 310 311 311 311 312 312 312 311 310 309 309 310 311 311 311 310 310 309 308 306 305 303 301 298 295 292 292 292 291 289 285 281 278 274 271 269 267 266 264 264 263 263 262 262 262 262 261 261 260 260 259 259 258 258 257 257 257 257 257 258 258 259 260 261
305 305 306 306 306 306 306 306 306 306 306 307 307 307 307 308 308 309 309 309 310 310 310 311 311 311 312 312 312 311 310 310 310 310 311 311 311 310 310 309 308 306 305 303 302 299 296 291 288 287 287 287 285 283 279 276 274 271 270 268 267 266 265 265 264 263 263 263 262 262 261 261 260 259 259 258 258 258 258 259 260 260 261 263 264 266
305 305 305 305 306 306 305 306 306 306 306 307 307 307 307 308 308 308 309 309 309 310 310 311 311 311 312 312 311 311 310 310 310 310 310 311 310 310 309 308 307 305 304 303 301 299 297 293 288 284 282 282 283 282 281 278 276 274 272 270 269 268 267 267 266 266 265 264 264 263 263 262 261 261 261 260 260 261 261 262 263 265 266 268 269 271
304 304 305 305 305 305 305 305 306 306 306 306 307 307 307 307 307 308 308 308 309 309 310 310 311 311 311 311 311 311 310 309 309 309 309 310 309 309 308 307 306 304 303 301 300 298 296 293 289 284 280 278 278 279 279 279 278 277 275 273 271 270 269 269 268 268 267 266 266 265 265 264 264 264 263 263 263 264 265 266 268 269 271 273 274 276
304 304 304 304 305 305 305 305 305 306 306 306 306 306 307 307 307 307 307 308 308 309 309 310 310 311 311 311 311 310 309 309 309 309 309 309 308 308 308 306 305 304 303 301 299 297 295 292 289 285 281 277 274 274 275 276 278 278 277 276 275 273 272 271 271 270 269 268 268 267 267 267 267 266 266 266 267 267 268 270 271 273 275 277 278 279
303 304 304 304 304 304 305 305 305 305 305 306 306 306 306 306 306 307 307 307 308 308 309 309 310 310 310 310 310 310 309 309 308 308 308 308 308 308 307 306 305 303 302 300 299 297 295 292 289 285 281 277 274 272 271 272 274 276 277 277 277 277 276 274 273 272 271 270 269 269 269 269 269 269 269 269 270 271 272 273 275 276 278 279 280 281
303 303 303 303 304 304 304 304 304 304 305 305 305 305 305 305 306 306 306 306 307 307 308 308 309 309 310 310 310 309 309 308 308 308 307 307 307 307 307 306 305 303 302 301 299 297 295 292 289 285 282 278 275 272 270 270 271 272 273 275 276 277 277 276 275 274 272 271 271 270 270 270 270 271 271 272 273 274 275 276 277 278 279 280 280 281
302 302 303 303 303 303 303 303 303 304 304 304 304 305 305 305 305 305 306 306 306 307 308 308 308 309 309 309 309 308 308 307 307 306 306 306 306 305 305 305 304 302 301 300 299 297 295 293 290 286 282 279 275 272 270 269 269 269 270 271 272 273 274 275 275 274 274 273 272 271 271 271 271 272 272 273 274 275 276 277 277 278 279 280 280 281
301 302 302 302 302 302 302 302 303 303 303 303 304 304 304 305 305 305 306 306 306 307 307 308 308 308 309 308 308 308 307 307 306 306 305 304 304 304 303 303 302 301 300 299 298 297 296 294 291 288 284 280 276 273 271 269 268 268 267 267 267 268 270 271 273 273 273 273 272 272 272 272 272 272 273 273 274 275 275 276 277 277 278 278 279 279
300 300 300 301 301 301 301 302 302 302 302 303 303 304 304 304 305 305 305 306 306 307 307 308 308 308 309 309 308 308 307 307 306 306 305 304 303 303 302 302 301 300 299 299 298 297 296 294 292 289 286 282 279 275 272 269 268 267 266 265 265 265 266 268 269 270 271 272 272 272 272 272 272 272 273 273 274 274 275 275 275 276 277 277 277 278
299 299 299 300 300 300 300 301 301 301 302 303 303 303 304 304 305 305 305 306 306 306 307 307 308 308 308 308 308 308 307 307 306 306 305 304 303 302 302 301 300 300 299 298 297 296 295 294 292 290 287 284 281 278 274 270 268 266 265 264 264 264 265 265 266 267 268 269 270 270 270 271 271 272 272 273 273 274 274 274 274 275 275 276 276 276
299 299 299 299 299 299 300 300 301 301 302 302 303 303 303 304 304 305 305 305 306 306 306 307 307 308 308 308 308 308 307 307 306 306 305 304 303 302 302 301 300 299 299 298 298 296 295 294 292 290 288 286 283 280 276 273 270 268 267 266 265 265 264 264 265 266 266 267 268 269 269 270 270 271 271 272 272 273 273 274 274 274 274 275 275 275
299 299 299 299 299 299 299 300 300 301 301 302 302 303 303 304 304 305 305 305 305 306 306 306 307 308 308 308 308 308 308 307 307 306 305 304 304 303 302 301 301 300 299 299 298 297 296 294 293 291 289 287 285 282 279 275 272 270 269 268 267 267 266 265 265 266 266 267 267 268 269 269 270 270 271 271 272 272 273 274 274 274 275 275 275 275
299 299 299 298 299 299 299 299 300 301 301 301 302 302 303 303 304 304 304 304 305 305 306 306 307 308 308 308 308 308 307 307 307 306 305 305 304 304 303 302 301 300 300 299 298 297 296 295 293 291 290 288 286 284 280 277 274 272 271 270 270 269 268 268 267 267 266 267 268 269 270 270 270 271 271 272 272 273 273 274 274 275 275 275 275 275
299 299 299 298 299 299 299 299 300 300 301 301 302 302 302 303 303 303 304 304 304 305 305 306 307 308 308 307 307 307 307 307 306 306 305 305 304 303 302 301 300 300 299 299 298 297 296 295 294 292 291 289 287 284 281 279 276 274 272 272 271 271 270 270 269 268 268 268 269 270 270 271 272 272 272 273 273 274 274 275 275 275 275 275 276 276
299 299 298 298 299 299 299 299 300 300 301 301 301 301 302 302 303 303 303 304 304 305 305 306 307 308 308 308 308 307 307 306 305 305 304 304 303 302 301 300 300 299 298 298 297 297 296 295 294 293 292 290 287 285 282 280 278 277 275 274 273 272 272 271 271 270 270 270 270 271 272 272 273 273 274 274 274 274 275 275 276 276 276 276 276 276
299 298 298 298 298 299 299 299 300 300 301 301 301 301 302 302 302 303 303 304 304 305 306 307 308 308 308 308 308 308 307 306 305 304 303 303 302 302 301 300 299 298 297 296 296 295 295 295 295 294 292 290 288 285 283 281 280 279 277 276 275 274 273 272 272 272 272 272 272 272 273 274 274 275 275 275 276 276 276 277 277 277 277 277 277 276
299 298 298 298 298 298 299 299 300 300 301 301 302 302 302 302 303 303 303 304 305 305 306 307 308 309 309 309 309 308 308 306 305 304 303 302 302 301 301 300 300 299 297 296 296 295 295 295 295 294 293 291 288 286 284 282 281 280 279 278 277 275 274 273 273 273 273 273 274 274 275 276 276 277 277 278 278 278 278 278 278 279 278 278 277 277
299 298 298 298 298 298 298 299 300 300 301 302 302 303 303 303 303 303 304 304 305 306 307 308 309 309 309 309 309 308 308 306 305 304 303 302 301 301 300 300 300 299 298 298 297 297 297 296 296 295 294 292 290 288 286 285 283 282 281 280 279 278 277 276 275 275 275 275 276 277 278 278 279 280 280 280 281 280 280 280 279 279 279 278 278 277
298 297 297 296 297 297 298 299 299 300 301 302 302 303 303 303 303 304 304 305 306 307 308 308 309 309 309 309 309 308 307 306 305 303 302 302 301 301 300 299 299 298 298 298 298 298 298 298 297 297 295 293 292 290 289 288 286 285 284 283 282 281 280 279 278 278 278 278 278 279 280 281 281 282 282 283 282 282 282 281 280 279 279 278 278 277
Height
3083 3083 3082 3081 3080 3080 3079 3078 3078 3078 3077 3076 3075 3074 3073 3072 3071 3070 3069 3068 3068 3067 3066 3065 3064 3063 3063 3062 3061 3060 3060 3059 3058 3058 3057 3056 3055 3055 3054 3053 3053 3052 3052 3052 3051 3051 3051 3051 3051 3051 3051 3051 3051 3052 3052 3052 3053 3053 3053 3053 3053 3054 3054 3055 3055 3056 3056 3056 3057 3057 3058 3058 3058 3059 3059 3060 3060 3060 3061 3061 3061 3061 3062 3062 3063 3063
3081 3081 3080 3079 3079 3078 3078 3077 3076 3076 3075 3074 3074 3073 3072 3071 3070 3069 3068 3068 3067 3066 3065 3064 3063 3063 3062 3061 3060 3059 3059 3058 3057 3057 3056 3055 3054 3054 3053 3053 3052 3052 3052 3051 3051 3051 3051 3051 3050 3050 3050 3051 3051 3051 3051 3051 3052 3052 3052 3052 3052 3053 3053 3053 3053 3054 3054 3054 3054 3055 3055 3055 3056 3056 3057 3057 3057 3058 3058 3058 3058 3059 3059 3059 3059 3060
3080 3079 3078 3078 3077 3077 3076 3075 3075 3074 3073 3073 3072 3072 3071 3070 3069 3068 3068 3067 3066 3065 3064 3063 3063 3062 3061 3060 3059 3058 3058 3057 3056 3056 3055 3054 3053 3053 3052 3052 3052 3051 3051 3051 3051 3050 3050 3050 3050 3050 3050 3050 3050 3050 3050 3050 3050 3051 3051 3051 3051 3051 3051 3051 3052 3052 3052 3052 3052 3052 3053 3053 3053 3053 3054 3054 3055 3055 3055 3056 3056 3056 3056 3056 3057 3057
3078 3078 3077 3077 3076 3075 3074 3074 3073 3073 3072 3071 3071 3070 3069 3069 3068 3067 3067 3066 3065 3064 3063 3063 3062 3061 3060 3059 3058 3058 3057 3056 3055 3055 3054 3053 3052 3052 3051 3051 3051 3050 3050 3050 3050 3049 3049 3049 3049 3049 3049 3049 3049 3049 3049 3049 3049 3049 3049 3049 3050 3050 3050 3050 3050 3050 3050 3050 3050 3050 3050 3050 3051 3051 3051 3052 3052 3052 3053 3053 3053 3053 3053 3053 3053 3054
3077 3076 3075 3075 3074 3073 3073 3072 3072 3071 3070 3070 3069 3069 3068 3067 3067 3066 3065 3064 3064 3063 3062 3061 3060 3060 3059 3058 3057 3057 3056 3055 3054 3053 3053 3052 3051 3051 3050 3050 3050 3049 3049 3049 3048 3048 3048 3048 3048 3048 3048 3048 3048 3048 3048 3048 3048 3048 3048 3048 3048 3048 3048 3048 3048 3048 3048 3048 3048 3048 3048 3048 3048 3048 3049 3049 3049 3049 3050 3050 3050 3050 3050 3050 3050 3050
3075 3074 3074 3073 3073 3072 3072 3071 3070 3069 3069 3068 3068 3067 3067 3066 3065 3064 3064 3063 3062 3062 3061 3060 3059 3058 3058 3057 3056 3055 3054 3053 3053 3052 3051 3051 3050 3050 3049 3049 3048 3048 3048 3048 3047 3047 3047 3047 3047 3046 3046 3046 3046 3046 3046 3046 3046 3046 3047 3046 3046 3046 3046 3046 3046 3045 3045 3045 3045 3045 3045 3046 3046 3046 3046 3046 3047 3047 3047 3047 3047 3047 3047 3047 3047 3048
3074 3073 3073 3072 3071 3071 3070 3069 3069 3068 3068 3067 3066 3065 3065 3064 3063 3063 3062 3061 3061 3060 3059 3058 3058 3057 3056 3055 3054 3053 3053 3052 3051 3051 3050 3049 3049 3048 3048 3048 3047 3047 3046 3046 3046 3046 3045 3045 3045 3045 3045 3045 3045 3044 3044 3044 3044 3044 3044 3044 3044 3044 3044 3043 3043 3043 3043 3043 3043 3043 3043 3043 3043 3043 3043 3043 3043 3044 3044 3044 3044 3044 3044 3044 3044 3044
3073 3072 3071 3071 3070 3069 3068 3068 3067 3067 3066 3065 3065 3064 3063 3063 3062 3061 3060 3059 3059 3058 3058 3057 3056 3055 3054 3054 3053 3052 3051 3051 3050 3049 3048 3048 3047 3047 3046 3046 3045 3045 3045 3044 3044 3044 3044 3043 3043 3043 3043 3043 3043 3043 3043 3043 3042 3042 3042 3042 3042 3041 3041 3041 3041 3041 3041 3040 3040 3040 3040 3040 3040 3040 3041 3041 3041 3041 3041 3041 3041 3041 3041 3041 3041 3042
3071 3071 3070 3069 3068 3068 3067 3066 3066 3065 3064 3063 3063 3062 3061 3061 3060 3059 3058 3058 3057 3056 3056 3055 3054 3053 3053 3052 3052 3051 3050 3049 3049 3048 3047 3047 3046 3045 3045 3044 3044 3043 3043 3043 3043 3042 3042 3042 3042 3042 3041 3041 3041 3041 3041 3040 3040 3040 3040 3039 3039 3039 3039 3038 3038 3038 3038 3038 3038 3038 3038 3038 3038 3038 3038 3038 3038 3038 3038 3038 3038 3038 3038 3038 3038 3038
3070 3069 3068 3068 3067 3067 3066 3065 3064 3063 3063 3062 3061 3061 3060 3059 3058 3058 3057 3056 3055 3055 3054 3053 3052 3052 3051 3051 3050 3049 3049 3048 3047 3047 3046 3045 3045 3044 3043 3043 3042 3042 3041 3041 3041 3040 3040 3040 3040 3040 3040 3039 3039 3039 3038 3038 3038 3038 3038 3037 3037 3037 3037 3036 3036 3036 3036 3035 3035 3035 3035 3035 3035 3035 3035 3035 3035 3035 3034 3034 3034 3034 3035 3035 3035 3035
3069 3068 3067 3067 3066 3065 3064 3063 3063 3062 3061 3061 3060 3059 3058 3058 3057 3056 3055 3054 3054 3053 3052 3052 3051 3050 3049 3049 3048 3048 3047 3046 3046 3045 3044 3044 3043 3043 3042 3041 3041 3040 3040 3039 3039 3039 3038 3038 3038 3038 3038 3038 3037 3037 3036 3036 3035 3035 3035 3034 3034 3034 3034 3033 3033 3033 3033 3033 3032 3032 3032 3032 3032 3032 3032 3032 3032 3031 3031 3031 3031 3031 3032 3032 3032 3032
3067 3067 3066 3065 3064 3064 3063 3062 3062 3061 3060 3059 3058 3058 3057 3056 3055 3055 3054 3053 3053 3052 3051 3050 3049 3048 3048 3047 3047 3046 3045 3044 3044 3043 3043 3042 3042 3041 3040 3040 3039 3038 3038 3038 3037 3037 3037 3037 3037 3036 3036 3035 3035 3034 3033 3033 3033 3032 3032 3032 3031 3031 3031 3031 3030 3030 3030 3029 3029 3029 3029 3028 3028 3028 3028 3028 3028 3028 3028 3028 3028 3028 3028 3028 3028 3029
3066 3065 3064 3064 3063 3062 3061 3061 3060 3059 3058 3058 3057 3056 3055 3055 3054 3053 3053 3052 3051 3050 3049 3049 3048 3047 3046 3045 3045 3044 3043 3043 3042 3041 3041 3040 3040 3039 3038 3038 3037 3037 3036 3036 3035 3035 3035 3035 3035 3034 3034 3033 3032 3031 3031 3030 3030 3029 3029 3029 3028 3028 3028 3028 3027 3027 3026 3026 3026 3026 3025 3025 3025 3025 3025 3025 3025 3025 3025 3025 3025 3026 3026 3026 3026 3026
3064 3063 3063 3062 3061 3061 3060 3059 3058 3058 3057 3056 3055 3055 3054 3053 3053 3052 3051 3050 3049 3048 3048 3047 3046 3045 3045 3044 3043 3043 3042 3041 3041 3040 3039 3038 3038 3037 3037 3036 3035 3035 3034 3033 3033 3033 3033 3032 3032 3032 3031 3030 3029 3029 3028 3027 3027 3026 3026 3026 3025 3025 3025 3024 3024 3023 3023 3023 3023 3022 3022 3022 3022 3022 3022 3022 3022 3022 3022 3023 3023 3023 3023 3024 3024 3024
3063 3062 3061 3061 3060 3059 3058 3058 3057 3056 3055 3054 3054 3053 3052 3052 3051 3050 3049 3048 3048 3047 3046 3045 3044 3043 3043 3042 3041 3041 3040 3040 3039 3038 3037 3036 3035 3035 3034 3034 3033 3033 3032 3031 3031 3030 3030 3030 3029 3029 3028 3028 3027 3026 3025 3024 3024 3023 3023 3023 3022 3022 3021 3021 3021 3020 3020 3020 3019 3019 3019 3019 3019 3019 3019 3019 3019 3020 3020 3020 3021 3021 3021 3022 3022 3023
3061 3060 3060 3059 3058 3058 3057 3056 3055 3054 3053 3053 3052 3051 3050 3050 3049 3048 3047 3046 3046 3045 3044 3043 3042 3041 3040 3039 3039 3038 3038 3038 3037 3036 3035 3034 3033 3032 3032 3032 3031 3030 3029 3028 3028 3028 3028 3027 3027 3026 3025 3024 3023 3023 3022 3022 3021 3020 3020 3019 3019 3019 3018 3018 3018 3017 3017 3017 3017 3016 3016 3016 3017 3017 3017 3017 3017 3018 3018 3018 3019 3019 3020 3020 3021 3021
3059 3059 3058 3057 3057 3056 3055 3054 3053 3053 3052 3051 3050 3049 3048 3048 3047 3046 3045 3044 3044 3043 3042 3042 3041 3040 3038 3038 3037 3036 3036 3035 3035 3034 3033 3032 3031 3030 3029 3029 3029 3028 3027 3026 3026 3025 3025 3024 3024 3023 3022 3021 3020 3020 3019 3018 3018 3018 3017 3017 3016 3016 3015 3015 3015 3014 3014 3014 3014 3014 3014 3014 3014 3014 3015 3015 3015 3016 3016 3017 3017 3018 3018 3019 3019 3020
3058 3057 3057 3056 3055 3054 3053 3053 3052 3051 3050 3049 3048 3048 3047 3046 3045 3044 3044 3043 3042 3041 3040 3040 3039 3038 3037 3036 3035 3034 3033 3033 3033 3032 3031 3030 3029 3028 3027 3026 3026 3026 3025 3024 3023 3023 3022 3022 3021 3020 3019 3018 3018 3017 3016 3016 3015 3015 3014 3014 3013 3013 3013 3012 3012 3012 3012 3012 3012 3012 3012 3012 3013 3013 3013 3013 3014 3014 3015 3015 3016 3016 3017 3017 3018 3018
3057 3056 3055 3054 3053 3053 3052 3051 3050 3049 3048 3048 3047 3046 3045 3045 3044 3043 3042 3041 3040 3039 3039 3038 3037 3036 3035 3034 3033 3032 3032 3031 3031 3030 3029 3028 3027 3025 3024 3023 3023 3023 3022 3021 3020 3020 3019 3019 3018 3017 3017 3016 3015 3014 3014 3013 3013 3012 3012 3011 3011 3010 3010 3010 3010 3010 3010 3010 3010 3010 3010 3010 3011 3011 3012 3012 3012 3013 3013 3014 3014 3015 3015 3016 3016 3016
3055 3054 3053 3053 3052 3051 3050 3049 3048 3048 3047 3046 3046 3045 3044 3043 3042 3041 3040 3039 3038 3038 3037 3036 3035 3034 3033 3032 3031 3030 3029 3029 3028 3028 3028 3026 3025 3023 3022 3022 3021 3020 3019 3018 3018 3017 3017 3016 3015 3015 3014 3013 3013 3012 3011 3011 3010 3009 3009 3009 3008 3008 3008 3008 3008 3008 3008 3008 3008 3008 3008 3009 3009 3009 3010 3010 3011 3011 3012 3012 3013 3013 3013 3014 3014 3014
3053 3053 3052 3051 3050 3049 3049 3048 3047 3046 3046 3045 3044 3043 3042 3041 3040 3039 3038 3038 3037 3036 3035 3034 3033 3032 3031 3030 3029 3028 3028 3027 3027 3026 3026 3025 3023 3022 3020 3019 3019 3018 3017 3016 3015 3015 3014 3013 3013 3012 3012 3011 3010 3010 3009 3008 3008 3007 3007 3007 3006 3006 3006 3006 3006 3006 3006 3006 3007 3007 3007 3007 3008 3008 3008 3009 3009 3010 3010 3010 3011 3011 3012 3012 3012 3013
3052 3051 3050 3050 3049 3048 3047 3047 3046 3045 3044 3043 3042 3041 3041 3040 3039 3038 3037 3036 3035 3034 3033 3032 3031 3030 3029 3028 3027 3026 3025 3024 3024 3024 3023 3023 3021 3020 3018 3018 3017 3016 3015 3014 3013 3012 3012 3011 3010 3010 3009 3009 3008 3008 3007 3006 3005 3005 3005 3004 3004 3004 3004 3004 3004 3004 3004 3005 3005 3005 3006 3006 3006 3007 3007 3007 3008 3008 3008 3009 3009 3009 3010 3010 3010 3010
3050 3049 3049 3048 3047 3046 3046 3045 3044 3043 3042 3041 3041 3040 3039 3038 3037 3036 3035 3034 3033 3032 3031 3030 3029 3028 3027 3026 3025 3023 3023 3022 3021 3021 3021 3020 3019 3018 3016 3015 3015 3014 3013 3012 3010 3010 3009 3008 3008 3008 3007 3007 3006 3005 3004 3004 3003 3003 3003 3003 3003 3003 3003 3003 3003 3003 3003 3003 3003 3004 3004 3004 3005 3005 3005 3006 3006 3006 3007 3007 3007 3008 3008 3008 3008 3008
3048 3048 3047 3046 3045 3045 3044 3043 3042 3042 3041 3040 3039 3038 3037 3036 3035 3034 3033 3033 3032 3031 3030 3029 3028 3026 3025 3023 3022 3021 3020 3019 3018 3018 3018 3018 3017 3016 3014 3013 3013 3011 3010 3009 3008 3007 3007 3006 3006 3006 3005 3004 3004 3003 3002 3002 3001 3001 3001 3001 3001 3001 3001 3001 3001 3002 3002 3002 3002 3003 3003 3003 3003 3003 3004 3004 3004 3004 3005 3005 3005 3005 3006 3006 3006 3007
3047 3046 3045 3044 3043 3043 3042 3041 3041 3040 3039 3038 3038 3037 3036 3035 3034 3033 3032 3031 3030 3029 3028 3027 3026 3024 3023 3022 3021 3019 3018 3017 3016 3016 3016 3015 3014 3013 3012 3011 3010 3009 3008 3007 3006 3005 3004 3004 3004 3003 3003 3002 3002 3001 3000 3000 2999 2999 2999 2999 2999 2999 3000 3000 3000 3000 3000 3001 3001 3001 3001 3001 3002 3002 3002 3002 3002 3003 3003 3003 3003 3003 3004 3004 3004 3005
3045 3044 3043 3043 3042 3041 3040 3040 3039 3038 3038 3037 3036 3035 3034 3033 3033 3031 3030 3029 3028 3027 3026 3025 3024 3023 3022 3021 3019 3018 3016 3015 3014 3013 3013 3013 3013 3011 3010 3009 3008 3007 3006 3005 3003 3003 3002 3002 3002 3001 3001 3000 3000 2999 2998 2998 2998 2998 2998 2998 2998 2998 2998 2998 2998 2998 2999 2999 2999 2999 2999 2999 3000 3000 3000 3000 3000 3000 3001 3001 3001 3001 3002 3002 3002 3003
3044 3043 3042 3041 3040 3039 3039 3038 3037 3036 3036 3035 3034 3033 3033 3032 3031 3030 3029 3028 3027 3026 3025 3024 3023 3022 3020 3019 3018 3016 3015 3013 3012 3012 3011 3011 3010 3009 3008 3007 3006 3005 3004 3003 3002 3001 3000 3000 2999 2999 2999 2998 2998 2997 2997 2996 2996 2996 2996 2996 2996 2996 2997 2997 2997 2997 2997 2997 2997 2998 2998 2998 2998 2998 2998 2998 2998 2998 2998 2999 2999 2999 2999 3000 3000 3000
3042 3042 3041 3040 3039 3038 3037 3036 3035 3034 3033 3033 3032 3031 3030 3030 3029 3028 3027 3026 3025 3024 3023 3022 3021 3020 3019 3018 3016 3014 3013 3012 3010 3010 3009 3009 3008 3007 3006 3005 3004 3003 3002 3001 3000 2999 2998 2998 2997 2997 2997 2996 2996 2995 2995 2995 2994 2994 2994 2994 2994 2994 2995 2995 2995 2995 2995 2995 2995 2995 2995 2996 2996 2996 2996 2996 2996 2996 2996 2997 2997 2997 2997 2998 2998 2998
3041 3040 3039 3038 3037 3036 3035 3034 3033 3033 3032 3031 3030 3029 3028 3027 3027 3026 3025 3024 3023 3022 3021 3020 3018 3018 3017 3016 3014 3013 3011 3009 3008 3008 3007 3007 3006 3005 3004 3003 3002 3001 3000 2999 2998 2997 2996 2995 2995 2995 2994 2994 2994 2993 2993 2993 2993 2993 2992 2993 2993 2993 2993 2993 2993 2993 2993 2993 2993 2993 2993 2993 2993 2993 2993 2994 2994 2994 2994 2994 2994 2995 2995 2995 2996 2996
3039 3038 3037 3036 3036 3035 3034 3033 3032 3031 3030 3029 3028 3027 3026 3025 3024 3023 3023 3022 3021 3019 3018 3018 3016 3015 3014 3013 3012 3011 3009 3007 3006 3005 3004 3004 3003 3003 3002 3000 2999 2998 2998 2997 2997 2996 2994 2993 2992 2992 2992 2992 2992 2992 2991 2991 2991 2991 2991 2991 2991 2991 2991 2991 2991 2991 2991 2991 2991 2991 2991 2991 2991 2991 2991 2991 2992 2992 2992 2992 2992 2993 2993 2993 2993 2994
3037 3036 3035 3035 3034 3033 3032 3031 3030 3029 3028 3027 3026 3025 3024 3023 3022 3021 3020 3019 3018 3017 3016 3015 3014 3013 3012 3011 3010 3008 3007 3005 3004 3003 3002 3002 3001 3000 2999 2998 2997 2996 2996 2995 2995 2994 2993 2992 2990 2990 2989 2989 2989 2989 2989 2989 2989 2989 2989 2988 2988 2988 2988 2988 2988 2989 2989 2989 2989 2988 2988 2988 2988 2988 2989 2989 2989 2989 2989 2990 2990 2990 2990 2991 2991 2991
3035 3034 3033 3033 3032 3031 3030 3029 3028 3027 3026 3025 3024 3023 3022 3021 3020 3019 3018 3017 3016 3015 3014 3013 3012 3011 3009 3008 3007 3006 3004 3003 3002 3001 3000 2999 2998 2998 2997 2996 2995 2994 2993 2993 2993 2992 2992 2991 2989 2988 2987 2987 2987 2987 2987 2987 2986 2986 2986 2986 2986 2986 2986 2986 2986 2986 2986 2986 2986 2986 2986 2986 2986 2986 2986 2986 2987 2987 2987 2987 2988 2988 2988 2988 2988 2988
3033 3032 3031 3031 3030 3029 3028 3027 3026 3025 3024 3023 3022 3021 3020 3019 3018 3017 3016 3015 3013 3013 3012 3010 3009 3008 3007 3006 3005 3003 3002 3001 2999 2998 2998 2997 2996 2995 2994 2993 2993 2992 2991 2990 2990 2990 2990 2989 2988 2987 2986 2985 2984 2984 2984 2984 2984 2984 2984 2984 2984 2984 2983 2984 2984 2984 2984 2984 2983 2983 2983 2983 2983 2983 2983 2984 2984 2984 2984 2985 2985 2985 2985 2985 2985 2986
3031 3030 3029 3028 3028 3027 3026 3025 3024 3023 3022 3021 3020 3019 3018 3017 3016 3014 3013 3013 3011 3010 3009 3008 3007 3006 3005 3004 3003 3001 2999 2998 2997 2996 2995 2995 2994 2993 2992 2991 2990 2989 2989 2988 2988 2987 2987 2987 2987 2986 2985 2983 2983 2982 2981 2981 2981 2981 2981 2981 2981 2981 2981 2981 2981 2981 2981 2981 2981 2981 2980 2980 2980 2981 2981 2981 2981 2982 2982 2982 2982 2982 2982 2982 2982 2982
3028 3028 3027 3026 3025 3024 3024 3023 3022 3021 3020 3019 3018 3017 3016 3014 3013 3013 3011 3010 3009 3008 3007 3006 3005 3004 3003 3002 3000 2999 2998 2996 2995 2994 2993 2992 2992 2991 2990 2989 2988 2987 2987 2986 2985 2985 2984 2984 2984 2984 2983 2983 2981 2980 2979 2978 2978 2978 2978 2978 2978 2978 2978 2978 2978 2978 2978 2978 2978 2978 2978 2978 2978 2978 2978 2978 2978 2978 2979 2979 2979 2979 2979 2979 2979 2979
3026 3025 3024 3024 3023 3022 3021 3020 3019 3018 3018 3017 3015 3014 3013 3012 3011 3010 3009 3008 3007 3006 3005 3004 3003 3001 3000 2999 2998 2997 2995 2994 2993 2991 2990 2990 2989 2988 2988 2987 2986 2985 2984 2983 2983 2983 2982 2982 2982 2982 2981 2981 2980 2979 2978 2977 2976 2976 2975 2975 2975 2975 2975 2976 2976 2976 2976 2976 2975 2975 2975 2975 2975 2975 2975 2975 2976 2976 2976 2976 2976 2976 2976 2976 2976 2976
3024 3023 3022 3021 3021 3020 3019 3018 3017 3016 3015 3014 3013 3012 3011 3010 3009 3008 3007 3006 3005 3004 3003 3002 3000 2999 2998 2997 2996 2994 2993 2992 2990 2989 2988 2987 2986 2986 2985 2984 2983 2983 2982 2981 2980 2980 2980 2980 2979 2979 2979 2978 2978 2978 2977 2976 2975 2974 2973 2973 2973 2973 2973 2973 2973 2973 2973 2973 2973 2972 2972 2972 2972 2972 2972 2973 2973 2973 2973 2973 2973 2973 2973 2973 2973 2973
3021 3021 3020 3019 3018 3017 3017 3016 3015 3014 3013 3012 3011 3010 3009 3008 3007 3006 3005 3004 3003 3002 3001 3000 2998 2997 2996 2995 2993 2992 2991 2990 2988 2987 2986 2985 2984 2983 2983 2982 2981 2980 2979 2978 2978 2978 2977 2977 2977 2977 2976 2976 2976 2975 2975 2974 2973 2973 2972 2971 2970 2970 2970 2969 2970 2970 2970 2970 2970 2969 2969 2969 2969 2969 2969 2970 2970 2970 2970 2970 2970 2970 2970 2970 2970 2970
3019 3018 3018 3017 3016 3015 3014 3013 3012 3011 3010 3009 3008 3008 3007 3006 3005 3004 3003 3002 3000 2999 2998 2998 2996 2995 2994 2993 2992 2990 2989 2988 2987 2985 2984 2983 2982 2981 2980 2980 2979 2978 2977 2976 2975 2975 2975 2974 2974 2974 2974 2974 2973 2973 2973 2972 2972 2971 2970 2969 2969 2968 2968 2967 2967 2967 2967 2967 2967 2967 2967 2967 2967 2967 2967 2967 2968 2968 2968 2968 2968 2968 2968 2968 2968 2968
3017 3016 3015 3014 3014 3013 3012 3011 3010 3009 3008 3007 3006 3005 3004 3003 3003 3002 3000 2999 2998 2997 2996 2995 2994 2993 2992 2991 2989 2988 2987 2986 2985 2983 2982 2981 2980 2979 2978 2978 2977 2976 2975 2974 2973 2973 2972 2972 2972 2972 2971 2971 2971 2971 2970 2970 2969 2969 2968 2968 2967 2966 2966 2965 2965 2964 2964 2964 2964 2964 2964 2964 2964 2964 2964 2965 2965 2965 2965 2965 2965 2965 2965 2965 2965 2965
3015 3014 3013 3013 3012 3011 3010 3009 3008 3007 3006 3005 3004 3003 3002 3001 3000 2999 2998 2997 2996 2995 2994 2993 2992 2991 2989 2988 2987 2986 2984 2983 2982 2981 2980 2979 2978 2977 2976 2975 2975 2974 2973 2972 2971 2971 2970 2969 2969 2969 2968 2968 2968 2968 2968 2968 2967 2966 2966 2965 2965 2964 2964 2964 2963 2963 2962 2962 2962 2962 2961 2961 2962 2962 2962 2962 2963 2963 2963 2963 2963 2963 2962 2962 2962 2962
3013 3012 3011 3010 3009 3008 3008 3007 3006 3005 3004 3003 3002 3001 3000 2999 2998 2997 2996 2995 2994 2993 2992 2991 2990 2988 2987 2986 2984 2983 2982 2981 2980 2979 2978 2977 2976 2975 2974 2973 2973 2972 2971 2970 2969 2969 2968 2968 2967 2966 2966 2966 2966 2966 2966 2965 2965 2964 2963 2963 2963 2963 2963 2962 2962 2961 2960 2960 2959 2959 2959 2959 2959 2959 2960 2960 2960 2960 2960 2960 2960 2960 2960 2959 2959 2959
3011 3010 3009 3008 3007 3006 3005 3004 3003 3003 3002 3001 3000 2999 2998 2997 2996 2995 2994 2993 2992 2991 2989 2988 2988 2987 2985 2984 2982 2981 2979 2978 2977 2976 2975 2974 2973 2973 2972 2971 2970 2969 2969 2968 2967 2967 2966 2966 2965 2964 2964 2963 2963 2963 2963 2963 2962 2961 2961 2960 2960 2960 2961 2960 2960 2959 2959 2958 2958 2957 2957 2957 2957 2957 2957 2958 2958 2957 2957 2957 2957 2957 2957 2957 2956 2956
3008 3008 3007 3006 3005 3004 3003 3002 3001 3001 3000 2999 2998 2997 2996 2995 2994 2993 2992 2991 2990 2988 2987 2986 2985 2984 2983 2982 2980 2978 2977 2976 2974 2973 2972 2971 2971 2970 2969 2968 2968 2967 2966 2966 2965 2964 2964 2963 2963 2962 2962 2961 2961 2961 2961 2960 2959 2959 2958 2958 2958 2958 2958 2958 2958 2958 2957 2956 2955 2955 2954 2954 2954 2954 2955 2955 2955 2955 2955 2955 2954 2954 2954 2953 2953 2953
3006 3005 3004 3004 3003 3002 3001 3000 2999 2998 2997 2996 2995 2994 2993 2993 2992 2991 2990 2988 2987 2986 2985 2984 2983 2982 2981 2979 2978 2977 2975 2974 2972 2971 2970 2969 2968 2967 2967 2966 2965 2964 2964 2963 2963 2962 2962 2961 2960 2960 2960 2959 2959 2958 2958 2958 2957 2957 2956 2956 2956 2956 2956 2956 2956 2955 2954 2954 2953 2953 2952 2952 2952 2952 2952 2952 2952 2952 2952 2952 2952 2951 2951 2950 2950 2950
3004 3003 3002 3001 3000 2999 2998 2998 2997 2996 2995 2994 2993 2992 2991 2990 2989 2988 2987 2986 2985 2984 2983 2982 2981 2980 2978 2977 2976 2975 2973 2972 2970 2969 2968 2966 2965 2965 2964 2963 2963 2962 2962 2961 2960 2960 2960 2959 2958 2958 2957 2957 2956 2956 2955 2955 2954 2954 2954 2953 2953 2953 2953 2953 2953 2953 2952 2951 2951 2950 2949 2949 2949 2949 2949 2949 2949 2949 2949 2949 2949 2948 2948 2948 2947 2947
3002 3001 3000 2999 2998 2997 2996 2995 2994 2993 2992 2991 2990 2989 2988 2988 2987 2986 2985 2984 2983 2982 2980 2979 2978 2978 2976 2975 2974 2973 2972 2970 2969 2967 2966 2964 2963 2962 2962 2961 2961 2960 2959 2959 2958 2958 2957 2957 2956 2956 2955 2955 2954 2953 2953 2952 2952 2951 2951 2951 2951 2951 2951 2951 2950 2949 2949 2948 2948 2947 2946 2946 2946 2946 2946 2946 2946 2946 2947 2946 2946 2945 2945 2944 2944 2943
3000 2999 2998 2997 2996 2995 2994 2993 2992 2991 2990 2989 2988 2987 2986 2985 2984 2983 2982 2981 2980 2979 2978 2977 2976 2975 2974 2973 2971 2970 2969 2968 2967 2965 2964 2963 2961 2960 2959 2958 2958 2958 2957 2957 2956 2956 2955 2955 2954 2954 2953 2952 2952 2951 2951 2950 2949 2949 2949 2948 2948 2948 2948 2948 2947 2947 2946 2946 2945 2944 2943 2943 2943 2943 2942 2942 2943 2943 2943 2943 2943 2942 2942 2941 2940 2940
2997 2997 2996 2995 2994 2993 2992 2991 2990 2989 2988 2987 2986 2984 2983 2983 2982 2981 2980 2978 2978 2977 2976 2975 2974 2973 2972 2970 2969 2968 2967 2966 2964 2963 2962 2960 2959 2958 2957 2956 2955 2955 2954 2954 2954 2954 2953 2953 2953 2952 2951 2950 2949 2949 2948 2948 2947 2947 2946 2946 2946 2946 2945 2945 2945 2944 2943 2943 2942 2941 2941 2940 2940 2939 2939 2939 2939 2940 2940 2940 2940 2939 2938 2938 2937 2937
2995 2994 2993 2992 2991 2990 2989 2988 2988 2987 2985 2984 2983 2983 2981 2980 2979 2978 2978 2976 2975 2974 2973 2973 2972 2970 2969 2968 2967 2966 2964 2963 2962 2961 2959 2958 2957 2956 2955 2954 2953 2952 2952 2951 2951 2951 2951 2951 2950 2949 2948 2948 2947 2946 2946 2945 2945 2944 2944 2944 2943 2943 2943 2942 2942 2941 2941 2940 2939 2938 2938 2937 2937 2936 2936 2935 2935 2936 2937 2937 2937 2936 2935 2934 2934 2933
2992 2991 2990 2989 2988 2988 2987 2986 2985 2984 2983 2982 2981 2980 2979 2978 2977 2976 2975 2974 2973 2972 2971 2970 2969 2968 2967 2966 2965 2963 2962 2961 2960 2958 2957 2956 2955 2954 2953 2951 2950 2950 2949 2949 2948 2948 2948 2948 2948 2947 2946 2945 2944 2943 2943 2943 2942 2942 2942 2941 2941 2940 2940 2939 2939 2938 2938 2937 2937 2936 2935 2935 2934 2933 2933 2932 2932 2932 2933 2933 2933 2933 2933 2932 2931 2930